DateTimeUTC,F1_A11,F1_S11,BsB_S11,BsG_S11,BsR_S11,BbsB_S11,BbsG_S11,BbsR_S11,BaB_A11,BaG_A11,BaR_A11,Tu_S11,T_S11,Uu_S11,U_S11,P_S11,T1_A11
2021-05-08T02:00:00Z,00000200,21000000,,,,,,,-000.13,-000.10,0000.04,16.2,23.9,,00.0,0673.0,30.9
2021-05-08T02:01:00Z,00000200,21000000,,,,,,,-000.04,-000.18,-000.34,16.3,23.9,,00.0,0673.0,31.0
2021-05-08T02:02:00Z,00000200,21000000,,,,,,,-000.22,0000.18,0000.15,16.3,23.9,,00.0,0673.0,31.0
2021-05-08T02:03:00Z,00000200,61000000,,,,,,,0000.04,-000.38,0000.05,16.3,23.9,,00.0,0673.0,31.0
2021-05-08T02:04:00Z,00000200,41000000,0000.08,-000.01,-000.22,0000.25,0000.35,0000.02,0000.03,0000.36,-000.15,16.6,23.8,,00.0,0673.8,31.0
2021-05-08T02:05:00Z,00000200,01000000,-000.05,-000.01,-000.40,0000.21,0000.19,-000.04,-000.20,-000.21,-000.30,16.7,23.7,,00.0,0673.9,30.9
2021-05-08T02:06:00Z,00000200,01000000,0000.50,0000.09,0000.33,0000.19,0000.13,0000.19,-000.25,-000.46,-000.25,16.6,23.6,,00.0,0673.9,30.9
2021-05-08T02:07:00Z,00000200,01010000,0000.60,0000.13,0000.19,0000.26,0000.22,-000.15,0000.05,-000.05,0000.21,16.6,23.6,,00.0,0674.0,30.9
2021-05-08T02:08:00Z,00000200,01000000,0000.13,0000.31,0000.23,0000.26,0000.27,0000.07,0000.02,0000.13,0000.12,16.6,23.6,,00.0,0674.0,30.9
2021-05-08T02:09:00Z,00000200,01000000,-000.35,0000.30,-000.15,0000.45,-000.06,-000.28,-000.28,-000.08,-000.47,16.5,23.5,,00.0,0674.0,30.9
2021-05-08T02:10:00Z,00000200,01000000,0000.69,0000.18,-000.08,0000.53,-000.08,-000.14,-000.10,-000.10,0000.28,16.5,23.5,,00.0,0674.0,30.9
2021-05-08T02:11:00Z,00000200,01000000,0000.44,-000.07,0000.01,0000.04,-000.01,-000.02,-000.07,-000.05,-000.18,16.5,23.6,,00.0,0673.9,30.9
2021-05-08T02:12:00Z,00000200,01000000,0000.13,0000.03,0000.40,-000.16,-000.07,-000.03,0000.22,0000.06,-000.08,16.6,23.6,,00.0,0673.9,30.9
2021-05-08T02:13:00Z,00000200,01000000,0000.08,0000.26,-000.01,0000.16,0000.16,-000.14,-000.19,0000.22,-000.06,16.6,23.6,,00.0,0673.9,30.9
2021-05-08T02:14:00Z,00000200,01000000,0000.29,0000.07,0000.19,0000.24,-000.02,-000.18,0000.25,-000.07,0000.25,16.6,23.6,,00.0,0673.9,31.0
2021-05-08T02:15:00Z,00000200,01000000,-000.07,-000.25,-000.21,-000.05,0000.02,-000.25,-000.04,0000.06,0000.28,16.7,23.6,,00.0,0673.9,31.0
2021-05-08T02:16:00Z,00000200,01000000,-000.06,0000.20,0000.20,0000.38,0000.07,0000.02,0000.09,-000.05,0000.11,16.7,23.6,,00.0,0673.9,31.0
2021-05-08T02:17:00Z,00000200,01000000,0000.36,0000.19,-000.07,-000.01,0000.19,-000.04,0000.12,0000.38,-000.28,16.8,23.7,,00.0,0673.8,31.0
2021-05-08T02:18:00Z,00000200,01000000,0000.30,0000.00,0000.16,0000.46,0000.18,-000.05,0000.28,-000.29,0000.09,16.8,23.7,,00.0,0673.8,31.0
2021-05-08T02:19:00Z,00000200,01000000,0000.92,0000.14,0000.04,0000.24,0000.31,0000.10,-000.14,0000.05,0000.17,16.9,23.7,,00.0,0673.8,31.0
2021-05-08T02:20:00Z,00000200,01000000,0001.01,0000.20,-000.12,0000.23,0000.11,-000.16,-000.19,-000.00,-000.21,16.9,23.7,,00.0,0673.8,31.0
2021-05-08T02:21:00Z,00000200,01000000,0000.17,-000.10,0000.18,0000.38,0000.09,-000.11,0000.27,-000.02,-000.11,17.0,23.7,,00.0,0673.8,31.0
2021-05-08T02:22:00Z,00000200,01000000,-000.00,0000.19,-000.02,0000.01,0000.30,-000.11,0000.23,0000.31,0000.34,17.0,23.8,,00.0,0673.8,31.0
2021-05-08T02:23:00Z,00000200,01000000,0000.01,0000.06,0000.15,0000.45,0000.13,-000.13,-000.01,-000.03,0000.16,17.0,23.8,,00.0,0673.8,31.0
2021-05-08T02:24:00Z,00000200,01000000,0000.64,0000.03,-000.03,0000.46,0000.33,-000.27,0000.31,0000.21,0000.17,17.1,23.8,,00.0,0673.8,31.0
2021-05-08T02:25:00Z,00000200,01000000,-000.18,0000.21,0000.27,-000.12,0000.18,-000.03,-000.31,0000.06,-000.14,17.1,23.9,,00.0,0673.8,31.0
2021-05-08T02:26:00Z,00000200,01000000,0000.50,0000.31,0000.05,0000.48,0000.12,-000.29,0000.19,0000.07,0000.19,17.2,23.9,,00.0,0673.8,31.0
2021-05-08T02:27:00Z,00000200,01000000,0000.35,-000.11,0000.17,0000.05,0000.30,-000.10,0000.21,0000.01,0000.12,17.2,23.9,,00.0,0673.8,31.0
2021-05-08T02:28:00Z,00000200,01000000,-000.31,0000.23,-000.16,-000.08,0000.24,-000.22,-000.09,0000.08,-000.17,17.3,23.9,,00.0,0673.8,31.0
2021-05-08T02:29:00Z,00000200,01000000,0000.31,0000.00,0000.03,0000.20,0000.12,0000.21,-000.17,-000.26,0000.07,17.3,24.0,,00.0,0673.8,31.1
2021-05-08T02:30:00Z,00000200,01000000,0000.34,0000.21,0000.16,-000.53,-000.04,-000.05,0000.27,0000.35,-000.24,17.3,24.0,,00.0,0673.8,31.0
2021-05-08T02:31:00Z,00000200,01000000,-000.04,0000.26,0000.32,0000.10,-000.17,-000.00,0000.09,-000.18,0000.29,17.2,23.9,,00.0,0673.8,31.0
2021-05-08T02:32:00Z,00000200,01000000,0000.66,0000.03,0000.10,0000.09,0000.31,-000.09,-000.05,0000.24,-000.29,17.2,23.9,,00.0,0673.8,31.0
2021-05-08T02:33:00Z,00000200,01000000,0000.17,0000.28,0000.17,0000.50,-000.11,0000.11,0000.10,-000.12,0000.40,17.1,23.9,,00.0,0673.8,30.9
2021-05-08T02:34:00Z,00000200,01000000,-000.22,0000.29,-000.18,0000.09,-000.12,0000.11,-000.10,0000.08,-000.08,17.0,23.9,,00.0,0673.8,30.9
2021-05-08T02:35:00Z,00000200,01000000,0000.24,0000.21,0000.05,0000.30,0000.03,-000.12,0000.05,0000.25,0000.10,17.0,23.9,,00.0,0673.8,30.9
2021-05-08T02:36:00Z,00000200,01000000,-000.17,0000.16,-000.23,0000.01,0000.23,-000.19,0000.47,0000.05,0000.09,17.0,23.8,,00.0,0673.8,30.9
2021-05-08T02:37:00Z,00000200,01000000,0000.36,0000.03,-000.02,-000.20,0000.12,-000.06,-000.17,0000.02,0000.27,16.9,23.8,,00.0,0673.8,30.9
2021-05-08T02:38:00Z,00000200,01000000,-000.00,0000.41,-000.12,-000.20,0000.18,-000.05,0000.25,-000.10,-000.50,16.8,23.8,,00.0,0673.8,30.9
2021-05-08T02:39:00Z,00000200,01000000,0000.30,0000.07,-000.00,-000.05,0000.16,-000.20,-000.03,0000.49,0000.49,16.8,23.7,,00.0,0673.8,30.9
2021-05-08T02:40:00Z,00000200,01000000,0000.38,0000.28,0000.25,0000.44,0000.22,-000.10,0000.28,-000.13,-000.02,16.8,23.7,,00.0,0673.8,30.9
2021-05-08T02:41:00Z,00000200,01000000,0000.17,0000.06,-000.00,-000.07,0000.02,-000.17,-000.02,-000.08,0000.20,16.8,23.7,,00.0,0673.7,30.9
2021-05-08T02:42:00Z,00000200,01000000,-000.09,0000.05,0000.09,0000.01,-000.19,0000.12,-000.05,0000.25,0000.12,16.8,23.7,,00.0,0673.7,30.9
2021-05-08T02:43:00Z,00000200,01000000,-000.00,0000.23,0000.10,0000.56,0000.05,-000.04,0000.19,0000.37,-000.22,16.8,23.7,,00.0,0673.7,30.9
2021-05-08T02:44:00Z,00000200,01000000,0000.36,0000.02,0000.11,0000.31,0000.10,-000.15,-000.40,-000.40,-000.19,16.8,23.7,,00.0,0673.7,30.9
2021-05-08T02:45:00Z,00000200,01000000,0000.33,0000.11,0000.07,-000.06,0000.52,-000.09,0000.02,-000.14,-000.16,16.9,23.7,,00.0,0673.7,31.0
2021-05-08T02:46:00Z,00000200,01000000,0000.26,0000.13,0000.21,0000.24,0000.13,-000.11,0000.21,-000.35,0000.09,16.9,23.8,,00.0,0673.7,31.0
2021-05-08T02:47:00Z,00000200,01000000,-000.35,0000.08,0000.09,0000.30,-000.03,-000.06,-000.42,0000.32,0000.01,17.0,23.8,,00.0,0673.7,31.0
2021-05-08T02:48:00Z,00000200,01000000,0000.29,-000.11,0000.07,0000.77,0000.26,-000.05,0000.09,-000.06,0000.14,17.0,23.8,,00.0,0673.7,31.0
2021-05-08T02:49:00Z,00000200,01000000,0000.05,0000.21,-000.18,0000.12,-000.04,0000.05,0000.38,0000.08,-000.15,17.0,23.8,,00.0,0673.7,31.0
2021-05-08T02:50:00Z,00000200,01000000,0000.27,0000.33,0000.22,0000.25,-000.08,0000.04,-000.36,-000.10,-000.19,17.1,23.9,,00.0,0673.7,31.0
2021-05-08T02:51:00Z,00000200,01000000,0000.28,0000.45,0000.03,0000.50,0000.04,0000.11,-000.06,-000.12,0000.15,17.1,23.9,,00.0,0673.7,31.0
2021-05-08T02:52:00Z,00000200,01000000,0000.89,0000.20,0000.17,0000.22,-000.07,0000.10,0000.09,0000.17,0000.16,17.1,23.9,,00.0,0673.7,31.0
2021-05-08T02:53:00Z,00000200,01000000,0000.39,0000.30,-000.15,0000.43,-000.07,0000.05,-000.14,-000.41,-000.07,17.2,23.9,,00.0,0673.7,31.0
2021-05-08T02:54:00Z,00000200,01000000,0000.22,0000.20,0000.28,0000.04,0000.10,0000.11,-000.21,0000.33,-000.06,17.2,24.0,,00.0,0673.7,31.0
2021-05-08T02:55:00Z,00000200,01000000,-000.13,0000.13,0000.08,-000.23,-000.05,0000.08,-000.05,-000.10,-000.22,17.2,24.0,,00.0,0673.7,31.0
2021-05-08T02:56:00Z,00000200,01000000,-000.02,0000.01,0000.06,0000.44,0000.22,-000.07,0000.54,0000.11,0000.40,17.3,24.0,,00.0,0673.7,31.0
2021-05-08T02:57:00Z,00000200,41000000,,,,,,,0001.98,0001.96,0001.40,17.3,24.0,,00.0,0673.6,31.0
2021-05-08T02:58:00Z,00000200,61000000,,,,,,,-000.54,-000.60,-000.33,16.8,24.2,,00.0,0672.7,31.0
2021-05-08T02:59:00Z,00000200,21000000,,,,,,,-000.53,-000.30,-000.25,16.8,24.3,,00.0,0672.7,31.0
